• în România
  • Lista ţărilor
  • Pe 7 zile
  • Temperatura apei
  • Hartă satelitară
  • Meteo pe hartă
  • Widget-uri
  • user-avatar
    Intrare

    Meteo pe oră la Sydney

    Astăzi, 22 Ianuarie, Luni

    Timp Temperatura Precipitaţii Vânt Presiune Umiditate
    00:00 +22°C° 0 mm 5 m/s 757 mmHg 81%
    01:00 +21°C° 0 mm 4 m/s 756 mmHg 84%
    02:00 +21°C° 0 mm 4 m/s 756 mmHg 84%
    03:00 +20°C° 0 mm 4 m/s 756 mmHg 85%
    04:00 +20°C° 0 mm 4 m/s 756 mmHg 87%
    05:00 +22°C° 0 mm 4 m/s 756 mmHg 79%
    06:00 +23°C° 0 mm 4 m/s 756 mmHg 72%
    07:00 +26°C° 0 mm 4 m/s 756 mmHg 64%
    08:00 +30°C° 0 mm 4 m/s 756 mmHg 51%
    09:00 +35°C° 0 mm 4 m/s 756 mmHg 38%
    10:00 +39°C° 0 mm 3 m/s 756 mmHg 28%
    11:00 +42°C° 0 mm 4 m/s 756 mmHg 23%
    12:00 +44°C° 0 mm 4 m/s 755 mmHg 19%
    13:00 +47°C° 0 mm 5 m/s 755 mmHg 14%
    14:00 +45°C° 0 mm 5 m/s 755 mmHg 17%
    15:00 +44°C° 0 mm 6 m/s 754 mmHg 19%
    16:00 +41°C° 0 mm 7 m/s 754 mmHg 21%
    17:00 +39°C° 0 mm 7 m/s 754 mmHg 26%
    18:00 +36°C° 0 mm 6 m/s 755 mmHg 31%
    19:00 +34°C° 0 mm 6 m/s 755 mmHg 36%
    20:00 +32°C° 0 mm 6 m/s 755 mmHg 39%
    21:00 +30°C° 0 mm 5 m/s 756 mmHg 41%
    22:00 +29°C° 0 mm 4 m/s 756 mmHg 44%
    23:00 +28°C° 0 mm 4 m/s 756 mmHg 48%

    Mâine, 23 Ianuarie, Marţi

    Timp Temperatura Precipitaţii Vânt Presiune Umiditate
    00:00 +27°C° 0 mm 3 m/s 756 mmHg 53%
    01:00 +27°C° 0 mm 2 m/s 756 mmHg 57%
    02:00 +26°C° 0 mm 2 m/s 756 mmHg 59%
    03:00 +26°C° 0 mm 2 m/s 756 mmHg 62%
    04:00 +25°C° 0 mm 2 m/s 756 mmHg 65%
    05:00 +26°C° 0 mm 2 m/s 756 mmHg 63%
    06:00 +27°C° 0 mm 2 m/s 756 mmHg 62%
    07:00 +27°C° 0 mm 2 m/s 757 mmHg 60%
    08:00 +29°C° 0 mm 3 m/s 757 mmHg 53%
    09:00 +31°C° 0 mm 3 m/s 757 mmHg 47%
    10:00 +34°C° 0 mm 4 m/s 757 mmHg 40%
    11:00 +37°C° 0 mm 4 m/s 757 mmHg 35%
    12:00 +40°C° 0 mm 5 m/s 756 mmHg 29%
    13:00 +42°C° 0 mm 5 m/s 756 mmHg 24%
    14:00 +41°C° 0 mm 6 m/s 756 mmHg 26%
    15:00 +40°C° 0 mm 6 m/s 755 mmHg 28%
    16:00 +39°C° 0 mm 7 m/s 755 mmHg 31%
    17:00 +35°C° 0,3 mm 6 m/s 755 mmHg 41%
    18:00 +32°C° 0,3 mm 6 m/s 756 mmHg 51%
    19:00 +29°C° 0,3 mm 5 m/s 756 mmHg 61%
    20:00 +28°C° 0,2 mm 5 m/s 757 mmHg 64%
    21:00 +27°C° 0,2 mm 5 m/s 757 mmHg 66%
    22:00 +27°C° 0,2 mm 5 m/s 758 mmHg 68%
    23:00 +26°C° 0 mm 4 m/s 757 mmHg 70%

    Poimâine, 24 Ianuarie, Miercuri

    Timp Temperatura Precipitaţii Vânt Presiune Umiditate
    00:00 +26°C° 0 mm 4 m/s 757 mmHg 71%
    01:00 +26°C° 0 mm 3 m/s 757 mmHg 72%
    02:00 +25°C° 0 mm 3 m/s 757 mmHg 75%
    03:00 +25°C° 0 mm 3 m/s 757 mmHg 78%
    04:00 +25°C° 0 mm 2 m/s 757 mmHg 82%
    05:00 +25°C° 0 mm 3 m/s 757 mmHg 80%
    06:00 +25°C° 0 mm 3 m/s 757 mmHg 79%
    07:00 +26°C° 0 mm 3 m/s 758 mmHg 78%
    08:00 +29°C° 0 mm 3 m/s 758 mmHg 66%
    09:00 +33°C° 0 mm 4 m/s 758 mmHg 53%
    10:00 +35°C° 0 mm 4 m/s 758 mmHg 40%
    11:00 +37°C° 0 mm 5 m/s 757 mmHg 35%
    12:00 +39°C° 0 mm 5 m/s 757 mmHg 30%
    13:00 +40°C° 0 mm 6 m/s 756 mmHg 26%
    14:00 +39°C° 0 mm 6 m/s 756 mmHg 30%
    15:00 +38°C° 0 mm 7 m/s 756 mmHg 35%
    16:00 +36°C° 0 mm 7 m/s 755 mmHg 39%
    17:00 +34°C° 0 mm 7 m/s 755 mmHg 48%
    18:00 +32°C° 0 mm 7 m/s 756 mmHg 57%
    19:00 +28°C° 0 mm 6 m/s 756 mmHg 66%
    20:00 +28°C° 0 mm 6 m/s 756 mmHg 70%
    21:00 +27°C° 0 mm 6 m/s 756 mmHg 74%
    22:00 +26°C° 0 mm 6 m/s 757 mmHg 78%
    23:00 +25°C° 0 mm 5 m/s 757 mmHg 81%

    25 Ianuarie, Joi

    Timp Temperatura Precipitaţii Vânt Presiune Umiditate
    00:00 +25°C° 0 mm 5 m/s 757 mmHg 83%
    01:00 +23°C° 0 mm 4 m/s 756 mmHg 86%
    02:00 +23°C° 0 mm 4 m/s 756 mmHg 88%
    03:00 +23°C° 0 mm 4 m/s 756 mmHg 90%
    04:00 +22°C° 0 mm 3 m/s 756 mmHg 92%
    05:00 +24°C° 0 mm 3 m/s 757 mmHg 88%
    06:00 +25°C° 0 mm 3 m/s 757 mmHg 84%
    07:00 +26°C° 0 mm 4 m/s 758 mmHg 80%
    08:00 +28°C° 0 mm 4 m/s 758 mmHg 70%
    09:00 +30°C° 0 mm 4 m/s 758 mmHg 61%
    10:00 +33°C° 0 mm 4 m/s 758 mmHg 51%
    11:00 +34°C° 0 mm 4 m/s 757 mmHg 48%
    12:00 +35°C° 0 mm 5 m/s 757 mmHg 44%
    13:00 +36°C° 0 mm 6 m/s 756 mmHg 41%
    14:00 +36°C° 0 mm 6 m/s 756 mmHg 44%
    15:00 +35°C° 0 mm 7 m/s 755 mmHg 46%
    16:00 +34°C° 0 mm 7 m/s 755 mmHg 49%
    17:00 +32°C° 0 mm 6 m/s 756 mmHg 56%
    18:00 +29°C° 0 mm 6 m/s 756 mmHg 63%
    19:00 +28°C° 0 mm 5 m/s 756 mmHg 70%
    20:00 +27°C° 0 mm 5 m/s 757 mmHg 75%
    21:00 +26°C° 0 mm 5 m/s 757 mmHg 80%
    22:00 +25°C° 0 mm 5 m/s 757 mmHg 85%
    23:00 +25°C° 0 mm 4 m/s 757 mmHg 86%

    26 Ianuarie, Vineri

    Timp Temperatura Precipitaţii Vânt Presiune Umiditate
    00:00 +25°C° 0 mm 4 m/s 757 mmHg 88%
    01:00 +25°C° 0 mm 3 m/s 757 mmHg 89%
    02:00 +25°C° 0 mm 3 m/s 757 mmHg 90%
    03:00 +25°C° 0 mm 3 m/s 757 mmHg 90%
    04:00 +25°C° 0 mm 3 m/s 757 mmHg 90%
    05:00 +26°C° 0 mm 3 m/s 757 mmHg 87%
    06:00 +26°C° 0 mm 3 m/s 757 mmHg 85%
    07:00 +27°C° 0 mm 3 m/s 758 mmHg 82%
    08:00 +29°C° 0 mm 3 m/s 758 mmHg 71%
    09:00 +31°C° 0 mm 3 m/s 758 mmHg 61%
    10:00 +34°C° 0 mm 3 m/s 758 mmHg 51%
    11:00 +36°C° 0 mm 4 m/s 757 mmHg 47%
    12:00 +37°C° 0 mm 5 m/s 757 mmHg 42%
    13:00 +39°C° 0 mm 6 m/s 756 mmHg 38%
    14:00 +38°C° 0 mm 6 m/s 756 mmHg 41%
    15:00 +36°C° 0 mm 7 m/s 756 mmHg 45%
    16:00 +35°C° 0 mm 7 m/s 755 mmHg 48%
    17:00 +33°C° 0,1 mm 7 m/s 756 mmHg 56%
    18:00 +32°C° 0,1 mm 6 m/s 757 mmHg 64%
    19:00 +29°C° 0,1 mm 6 m/s 757 mmHg 71%
    20:00 +28°C° 0 mm 6 m/s 757 mmHg 74%
    21:00 +27°C° 0 mm 6 m/s 758 mmHg 77%
    22:00 +27°C° 0 mm 5 m/s 758 mmHg 79%
    23:00 +26°C° 0 mm 5 m/s 758 mmHg 82%

    27 Ianuarie, Sâmbătă

    Timp Temperatura Precipitaţii Vânt Presiune Umiditate
    00:00 +26°C° 0 mm 5 m/s 758 mmHg 84%
    01:00 +26°C° 0 mm 4 m/s 757 mmHg 86%
    02:00 +25°C° 0 mm 4 m/s 757 mmHg 87%
    03:00 +25°C° 0 mm 4 m/s 757 mmHg 88%
    04:00 +25°C° 0 mm 4 m/s 757 mmHg 90%
    05:00 +26°C° 0 mm 4 m/s 758 mmHg 87%
    06:00 +26°C° 0 mm 4 m/s 758 mmHg 84%
    07:00 +27°C° 0 mm 4 m/s 759 mmHg 81%
    08:00 +28°C° 0 mm 4 m/s 759 mmHg 75%
    09:00 +29°C° 0 mm 4 m/s 759 mmHg 69%
    10:00 +30°C° 0 mm 5 m/s 759 mmHg 63%
    11:00 +33°C° 0 mm 5 m/s 758 mmHg 57%
    12:00 +34°C° 0 mm 6 m/s 758 mmHg 52%
    13:00 +36°C° 0 mm 6 m/s 758 mmHg 47%
    14:00 +35°C° 0 mm 6 m/s 757 mmHg 48%
    15:00 +34°C° 0 mm 7 m/s 757 mmHg 50%
    16:00 +34°C° 0 mm 7 m/s 757 mmHg 51%
    17:00 +32°C° 0 mm 6 m/s 757 mmHg 59%
    18:00 +29°C° 0 mm 6 m/s 758 mmHg 66%
    19:00 +27°C° 0 mm 5 m/s 758 mmHg 74%
    20:00 +26°C° 0 mm 5 m/s 758 mmHg 78%
    21:00 +26°C° 0 mm 4 m/s 759 mmHg 83%
    22:00 +25°C° 0 mm 4 m/s 759 mmHg 87%
    23:00 +25°C° 0 mm 3 m/s 759 mmHg 88%
    Arată mai mult